Time,TemperatureF,DewpointF,PressureIn,WindDirection,WindDirectionDegrees,WindSpeedMPH,WindSpeedGustMPH,Humidity,HourlyPrecipIn,Conditions,Clouds,dailyrainin,SoftwareType,DateUTC
2013-02-12 00:00:00,73.1,64.4,29.97,SE,135,3.4,4.0,74,0.00,,,0.00,WUHU216HW,2013-02-12 10:00:00,
2013-02-12 00:05:00,73.1,64.0,29.97,NNE,23,0.4,4.0,73,0.00,,,0.00,WUHU216HW,2013-02-12 10:05:00,
2013-02-12 00:10:00,73.1,64.0,29.97,NE,45,3.8,3.8,73,0.00,,,0.00,WUHU216HW,2013-02-12 10:10:00,
2013-02-12 00:15:00,73.1,64.0,29.97,SW,225,0.7,3.8,73,0.00,,,0.00,WUHU216HW,2013-02-12 10:15:00,
2013-02-12 00:20:00,73.1,64.0,29.96,SSE,158,3.4,5.1,73,0.00,,,0.00,WUHU216HW,2013-02-12 10:20:00,
2013-02-12 00:25:00,73.1,64.0,29.96,WSW,248,2.2,5.1,73,0.00,,,0.00,WUHU216HW,2013-02-12 10:25:00,
2013-02-12 00:30:00,73.1,64.0,29.96,ESE,113,3.4,4.3,73,0.00,,,0.00,WUHU216HW,2013-02-12 10:30:00,
2013-02-12 00:35:00,73.1,64.0,29.96,SSE,158,4.7,4.7,73,0.00,,,0.00,WUHU216HW,2013-02-12 10:35:00,
2013-02-12 00:40:00,73.1,63.5,29.96,WNW,293,2.5,4.7,72,0.00,,,0.00,WUHU216HW,2013-02-12 10:40:00,
2013-02-12 00:45:00,73.1,63.5,29.96,ENE,68,3.4,4.7,72,0.00,,,0.00,WUHU216HW,2013-02-12 10:45:00,
2013-02-12 00:50:00,73.1,63.5,29.96,North,0,2.9,4.3,72,0.00,,,0.00,WUHU216HW,2013-02-12 10:50:00,
2013-02-12 00:55:00,73.1,63.5,29.96,SSE,158,1.8,4.5,72,0.00,,,0.00,WUHU216HW,2013-02-12 10:55:00,
2013-02-12 01:00:00,73.1,63.5,29.96,SE,135,2.0,5.4,72,0.00,,,0.00,WUHU216HW,2013-02-12 11:00:00,
2013-02-12 01:05:00,73.1,63.5,29.96,SSE,158,0.9,5.4,72,0.00,,,0.00,WUHU216HW,2013-02-12 11:05:00,
2013-02-12 01:10:00,73.1,63.5,29.96,NNE,23,2.5,3.1,72,0.00,,,0.00,WUHU216HW,2013-02-12 11:10:00,
2013-02-12 01:15:00,73.1,63.5,29.96,SSE,158,5.1,5.1,72,0.00,,,0.00,WUHU216HW,2013-02-12 11:15:00,
2013-02-12 01:20:00,72.9,63.4,29.95,SSE,158,4.0,5.1,72,0.00,,,0.00,WUHU216HW,2013-02-12 11:20:00,
2013-02-12 01:25:00,72.9,63.4,29.95,SSE,158,2.5,4.0,72,0.00,,,0.00,WUHU216HW,2013-02-12 11:25:00,
2013-02-12 01:30:00,72.9,63.4,29.95,SE,135,1.6,3.4,72,0.00,,,0.00,WUHU216HW,2013-02-12 11:30:00,
2013-02-12 01:35:00,72.9,63.4,29.95,South,180,3.8,4.0,72,0.00,,,0.00,WUHU216HW,2013-02-12 11:35:00,
2013-02-12 01:40:00,72.9,63.4,29.95,SSW,203,3.6,4.0,72,0.00,,,0.00,WUHU216HW,2013-02-12 11:40:00,
2013-02-12 01:45:00,72.9,63.4,29.95,SE,135,5.4,5.4,72,0.00,,,0.00,WUHU216HW,2013-02-12 11:45:00,
2013-02-12 01:50:00,72.9,63.4,29.95,SSE,158,1.1,5.4,72,0.00,,,0.00,WUHU216HW,2013-02-12 11:50:00,
2013-02-12 01:55:00,72.9,63.0,29.95,South,180,0.9,4.0,71,0.00,,,0.00,WUHU216HW,2013-02-12 11:55:00,
2013-02-12 02:00:00,72.7,62.8,29.95,NNE,23,2.0,4.0,71,0.00,,,0.00,WUHU216HW,2013-02-12 12:00:00,
2013-02-12 02:05:00,72.7,62.8,29.94,SSW,203,2.0,4.0,71,0.00,,,0.00,WUHU216HW,2013-02-12 12:05:00,
2013-02-12 02:10:00,72.7,62.8,29.94,SE,135,2.2,4.3,71,0.00,,,0.00,WUHU216HW,2013-02-12 12:10:00,
2013-02-12 02:15:00,72.7,62.8,29.94,ESE,113,2.9,4.3,71,0.00,,,0.00,WUHU216HW,2013-02-12 12:15:00,
2013-02-12 02:20:00,72.7,62.8,29.94,NE,45,0.4,3.1,71,0.00,,,0.00,WUHU216HW,2013-02-12 12:20:00,
2013-02-12 02:25:00,72.7,62.8,29.94,SSE,158,2.5,3.1,71,0.00,,,0.00,WUHU216HW,2013-02-12 12:25:00,
2013-02-12 02:30:00,72.7,62.8,29.94,NW,315,1.1,3.4,71,0.00,,,0.00,WUHU216HW,2013-02-12 12:30:00,
2013-02-12 02:35:00,72.5,62.6,29.93,SSW,203,1.6,3.4,71,0.00,,,0.00,WUHU216HW,2013-02-12 12:35:00,
2013-02-12 02:40:00,72.5,62.6,29.93,ENE,68,3.1,3.4,71,0.00,,,0.00,WUHU216HW,2013-02-12 12:40:00,
2013-02-12 02:45:00,72.5,62.6,29.93,SSE,158,3.1,3.1,71,0.00,,,0.00,WUHU216HW,2013-02-12 12:45:00,
2013-02-12 02:50:00,72.5,62.6,29.93,SE,135,3.4,3.4,71,0.00,,,0.00,WUHU216HW,2013-02-12 12:50:00,
2013-02-12 02:55:00,72.5,62.6,29.93,North,0,2.5,3.4,71,0.00,,,0.00,WUHU216HW,2013-02-12 12:55:00,
2013-02-12 03:00:00,72.4,62.5,29.93,ENE,68,2.2,2.9,71,0.00,,,0.00,WUHU216HW,2013-02-12 13:00:00,
2013-02-12 03:05:00,72.4,62.5,29.93,NNE,23,1.8,5.8,71,0.00,,,0.00,WUHU216HW,2013-02-12 13:05:00,
2013-02-12 03:10:00,72.4,62.5,29.93,NNE,23,1.8,5.8,71,0.00,,,0.00,WUHU216HW,2013-02-12 13:10:00,
2013-02-12 03:15:00,72.4,62.5,29.93,NW,315,0.9,4.5,71,0.00,,,0.00,WUHU216HW,2013-02-12 13:15:00,
2013-02-12 03:20:00,72.4,62.1,29.93,ENE,68,2.5,2.5,70,0.00,,,0.00,WUHU216HW,2013-02-12 13:20:00,
2013-02-12 03:25:00,72.2,61.9,29.93,SE,135,3.1,3.1,70,0.00,,,0.00,WUHU216HW,2013-02-12 13:25:00,
2013-02-12 03:30:00,72.2,61.9,29.93,SE,135,1.8,4.3,70,0.00,,,0.00,WUHU216HW,2013-02-12 13:30:00,
2013-02-12 03:35:00,72.2,61.9,29.93,ESE,113,2.5,4.3,70,0.00,,,0.00,WUHU216HW,2013-02-12 13:35:00,
2013-02-12 03:40:00,72.2,61.9,29.93,NW,315,3.4,3.4,70,0.00,,,0.00,WUHU216HW,2013-02-12 13:40:00,
2013-02-12 03:45:00,72.0,61.7,29.93,North,0,1.1,3.4,70,0.00,,,0.00,WUHU216HW,2013-02-12 13:45:00,
2013-02-12 03:50:00,72.0,61.3,29.93,NNE,23,2.0,2.5,69,0.00,,,0.00,WUHU216HW,2013-02-12 13:50:00,
2013-02-12 03:55:00,72.0,61.3,29.93,North,0,0.4,2.5,69,0.00,,,0.00,WUHU216HW,2013-02-12 13:55:00,
2013-02-12 04:00:00,72.0,61.3,29.93,North,0,1.1,2.5,69,0.00,,,0.00,WUHU216HW,2013-02-12 14:00:00,
2013-02-12 04:05:00,71.8,61.1,29.93,NNW,338,1.1,1.1,69,0.00,,,0.00,WUHU216HW,2013-02-12 14:05:00,
2013-02-12 04:10:00,71.8,61.1,29.93,SSE,158,1.1,2.5,69,0.00,,,0.00,WUHU216HW,2013-02-12 14:10:00,
2013-02-12 04:15:00,71.6,60.9,29.93,ESE,113,2.7,2.7,69,0.00,,,0.00,WUHU216HW,2013-02-12 14:15:00,
2013-02-12 04:20:00,71.6,60.9,29.93,ENE,68,0.0,2.7,69,0.00,,,0.00,WUHU216HW,2013-02-12 14:20:00,
2013-02-12 04:25:00,71.6,60.1,29.93,NNE,23,0.4,2.0,67,0.00,,,0.00,WUHU216HW,2013-02-12 14:25:00,
2013-02-12 04:30:00,71.6,60.1,29.93,NNE,23,0.2,2.0,67,0.00,,,0.00,WUHU216HW,2013-02-12 14:30:00,
2013-02-12 04:35:00,71.5,60.0,29.93,SSE,158,0.2,1.1,67,0.00,,,0.00,WUHU216HW,2013-02-12 14:35:00,
2013-02-12 04:40:00,71.3,59.8,29.93,SE,135,1.1,1.8,67,0.00,,,0.00,WUHU216HW,2013-02-12 14:40:00,
2013-02-12 04:45:00,71.3,59.8,29.93,NW,315,0.4,1.8,67,0.00,,,0.00,WUHU216HW,2013-02-12 14:45:00,
2013-02-12 04:50:00,71.3,59.8,29.93,North,0,2.0,2.0,67,0.00,,,0.00,WUHU216HW,2013-02-12 14:50:00,
2013-02-12 04:55:00,71.5,60.3,29.93,NW,315,0.4,2.0,68,0.00,,,0.00,WUHU216HW,2013-02-12 14:55:00,
2013-02-12 05:00:00,71.5,60.3,29.93,SE,135,0.7,2.7,68,0.00,,,0.00,WUHU216HW,2013-02-12 15:00:00,
2013-02-12 05:05:00,71.5,60.8,29.93,NE,45,0.9,2.7,69,0.00,,,0.00,WUHU216HW,2013-02-12 15:05:00,
2013-02-12 05:10:00,71.3,60.6,29.93,East,90,0.0,1.1,69,0.00,,,0.00,WUHU216HW,2013-02-12 15:10:00,
2013-02-12 05:15:00,71.3,60.6,29.92,ESE,113,1.1,1.3,69,0.00,,,0.00,WUHU216HW,2013-02-12 15:15:00,
2013-02-12 05:20:00,71.3,60.6,29.92,North,0,0.7,1.3,69,0.00,,,0.00,WUHU216HW,2013-02-12 15:20:00,
2013-02-12 05:25:00,71.3,60.6,29.93,SE,135,0.2,1.1,69,0.00,,,0.00,WUHU216HW,2013-02-12 15:25:00,
2013-02-12 05:30:00,71.1,60.4,29.92,NE,45,0.0,1.1,69,0.00,,,0.00,WUHU216HW,2013-02-12 15:30:00,
2013-02-12 05:35:00,71.1,60.8,29.93,NNW,338,1.6,1.6,70,0.00,,,0.00,WUHU216HW,2013-02-12 15:35:00,
2013-02-12 05:40:00,71.1,60.8,29.92,NNE,23,0.7,2.5,70,0.00,,,0.00,WUHU216HW,2013-02-12 15:40:00,
2013-02-12 05:45:00,71.1,60.8,29.93,ENE,68,0.4,2.5,70,0.00,,,0.00,WUHU216HW,2013-02-12 15:45:00,
2013-02-12 05:50:00,71.1,60.8,29.93,NW,315,0.7,1.8,70,0.00,,,0.00,WUHU216HW,2013-02-12 15:50:00,
2013-02-12 05:55:00,71.1,60.8,29.93,SSE,158,2.2,4.0,70,0.00,,,0.00,WUHU216HW,2013-02-12 15:55:00,
2013-02-12 06:00:00,71.3,61.0,29.93,SSW,203,2.0,4.7,70,0.00,,,0.00,WUHU216HW,2013-02-12 16:00:00,
2013-02-12 06:05:00,71.3,61.0,29.93,SSE,158,3.4,4.7,70,0.00,,,0.00,WUHU216HW,2013-02-12 16:05:00,
2013-02-12 06:10:00,71.3,61.0,29.93,SW,225,4.7,4.7,70,0.00,,,0.00,WUHU216HW,2013-02-12 16:10:00,
2013-02-12 06:15:00,71.5,61.6,29.93,WSW,248,5.4,5.4,71,0.00,,,0.00,WUHU216HW,2013-02-12 16:15:00,
2013-02-12 06:20:00,71.5,61.6,29.94,SE,135,2.9,7.4,71,0.00,,,0.00,WUHU216HW,2013-02-12 16:20:00,
2013-02-12 06:25:00,71.5,61.6,29.94,NNW,338,2.5,7.4,71,0.00,,,0.00,WUHU216HW,2013-02-12 16:25:00,
2013-02-12 06:30:00,71.5,61.6,29.94,North,0,3.4,7.2,71,0.00,,,0.00,WUHU216HW,2013-02-12 16:30:00,
2013-02-12 06:35:00,71.3,61.4,29.94,NW,315,1.6,3.6,71,0.00,,,0.00,WUHU216HW,2013-02-12 16:35:00,
2013-02-12 06:40:00,71.3,61.4,29.94,SSE,158,1.6,2.7,71,0.00,,,0.00,WUHU216HW,2013-02-12 16:40:00,
2013-02-12 06:45:00,71.3,61.4,29.94,NNW,338,0.9,2.7,71,0.00,,,0.00,WUHU216HW,2013-02-12 16:45:00,
2013-02-12 06:50:00,71.5,61.6,29.94,SSE,158,0.7,2.5,71,0.00,,,0.00,WUHU216HW,2013-02-12 16:50:00,
2013-02-12 06:55:00,71.5,61.6,29.94,SSW,203,2.5,2.7,71,0.00,,,0.00,WUHU216HW,2013-02-12 16:55:00,
2013-02-12 07:00:00,71.5,61.9,29.94,SE,135,2.7,2.7,72,0.00,,,0.00,WUHU216HW,2013-02-12 17:00:00,
2013-02-12 07:05:00,71.5,61.9,29.94,ENE,68,2.9,2.9,72,0.00,,,0.00,WUHU216HW,2013-02-12 17:05:00,
2013-02-12 07:10:00,71.5,61.9,29.95,South,180,1.8,2.9,72,0.00,,,0.00,WUHU216HW,2013-02-12 17:10:00,
2013-02-12 07:15:00,71.5,61.6,29.95,ENE,68,1.1,2.9,71,0.00,,,0.00,WUHU216HW,2013-02-12 17:15:00,
2013-02-12 07:20:00,71.5,61.6,29.95,ESE,113,1.8,2.7,71,0.00,,,0.00,WUHU216HW,2013-02-12 17:20:00,
2013-02-12 07:25:00,71.5,61.6,29.95,NE,45,2.7,2.7,71,0.00,,,0.00,WUHU216HW,2013-02-12 17:25:00,
2013-02-12 07:30:00,71.5,61.6,29.95,NE,45,2.0,2.7,71,0.00,,,0.00,WUHU216HW,2013-02-12 17:30:00,
2013-02-12 07:35:00,71.5,61.6,29.95,ENE,68,2.5,2.5,71,0.00,,,0.00,WUHU216HW,2013-02-12 17:35:00,
2013-02-12 07:40:00,71.6,61.7,29.95,NE,45,2.2,2.5,71,0.00,,,0.00,WUHU216HW,2013-02-12 17:40:00,
2013-02-12 07:45:00,71.6,61.7,29.95,NNW,338,3.4,3.4,71,0.00,,,0.00,WUHU216HW,2013-02-12 17:45:00,
2013-02-12 07:50:00,71.6,61.7,29.96,NW,315,1.6,3.4,71,0.00,,,0.00,WUHU216HW,2013-02-12 17:50:00,
2013-02-12 07:55:00,71.6,61.7,29.96,ESE,113,2.5,4.0,71,0.00,,,0.00,WUHU216HW,2013-02-12 17:55:00,
2013-02-12 08:00:00,71.6,61.7,29.96,ESE,113,1.8,4.0,71,0.00,,,0.00,WUHU216HW,2013-02-12 18:00:00,
2013-02-12 08:05:00,71.6,61.7,29.96,SE,135,0.9,3.4,71,0.00,,,0.00,WUHU216HW,2013-02-12 18:05:00,
2013-02-12 08:10:00,71.8,61.9,29.96,NE,45,1.6,2.9,71,0.00,,,0.00,WUHU216HW,2013-02-12 18:10:00,
2013-02-12 08:15:00,71.8,61.9,29.96,ENE,68,1.1,2.9,71,0.00,,,0.00,WUHU216HW,2013-02-12 18:15:00,
2013-02-12 08:20:00,71.8,61.9,29.95,South,180,1.1,2.5,71,0.00,,,0.00,WUHU216HW,2013-02-12 18:20:00,
2013-02-12 08:25:00,71.8,61.9,29.95,SSE,158,0.7,4.3,71,0.00,,,0.00,WUHU216HW,2013-02-12 18:25:00,
2013-02-12 08:30:00,72.0,62.1,29.95,North,0,1.3,4.3,71,0.00,,,0.00,WUHU216HW,2013-02-12 18:30:00,
2013-02-12 08:35:00,72.0,62.1,29.95,SSW,203,1.8,4.7,71,0.00,,,0.00,WUHU216HW,2013-02-12 18:35:00,
2013-02-12 08:40:00,72.0,62.5,29.95,SW,225,2.0,4.7,72,0.00,,,0.00,WUHU216HW,2013-02-12 18:40:00,
2013-02-12 08:45:00,72.0,62.1,29.95,SE,135,1.8,3.4,71,0.00,,,0.00,WUHU216HW,2013-02-12 18:45:00,
2013-02-12 08:50:00,72.0,62.5,29.95,WSW,248,2.7,3.6,72,0.00,,,0.00,WUHU216HW,2013-02-12 18:50:00,
2013-02-12 08:55:00,72.0,62.5,29.95,SSE,158,1.6,3.6,72,0.00,,,0.00,WUHU216HW,2013-02-12 18:55:00,
2013-02-12 09:00:00,72.0,62.5,29.96,NNW,338,2.7,3.4,72,0.00,,,0.00,WUHU216HW,2013-02-12 19:00:00,
2013-02-12 09:05:00,72.2,62.6,29.96,ESE,113,2.2,3.4,72,0.00,,,0.00,WUHU216HW,2013-02-12 19:05:00,
2013-02-12 09:10:00,72.2,62.6,29.95,SSW,203,1.1,5.4,72,0.00,,,0.00,WUHU216HW,2013-02-12 19:10:00,
2013-02-12 09:15:00,72.2,62.6,29.96,ENE,68,3.6,5.4,72,0.00,,,0.00,WUHU216HW,2013-02-12 19:15:00,
2013-02-12 09:20:00,72.4,63.3,29.95,NNE,23,2.5,4.9,73,0.00,,,0.00,WUHU216HW,2013-02-12 19:20:00,
2013-02-12 09:25:00,72.4,63.3,29.96,ENE,68,1.8,3.1,73,0.00,,,0.00,WUHU216HW,2013-02-12 19:25:00,
2013-02-12 09:30:00,72.4,63.3,29.96,ENE,68,0.9,3.8,73,0.00,,,0.00,WUHU216HW,2013-02-12 19:30:00,
2013-02-12 09:35:00,72.4,63.3,29.96,WSW,248,0.7,4.9,73,0.00,,,0.00,WUHU216HW,2013-02-12 19:35:00,
2013-02-12 09:40:00,72.4,63.3,29.96,North,0,0.4,4.9,73,0.00,,,0.00,WUHU216HW,2013-02-12 19:40:00,
2013-02-12 09:45:00,72.4,63.3,29.96,North,0,1.3,5.1,73,0.00,,,0.00,WUHU216HW,2013-02-12 19:45:00,
2013-02-12 09:50:00,72.4,63.3,29.96,WSW,248,3.1,5.1,73,0.00,,,0.00,WUHU216HW,2013-02-12 19:50:00,
2013-02-12 09:55:00,72.4,62.8,29.96,ENE,68,1.1,3.1,72,0.00,,,0.00,WUHU216HW,2013-02-12 19:55:00,
2013-02-12 10:00:00,72.4,62.8,29.96,NNW,338,1.8,3.1,72,0.00,,,0.00,WUHU216HW,2013-02-12 20:00:00,
2013-02-12 10:05:00,72.4,62.8,29.96,NNE,23,1.6,4.5,72,0.00,,,0.00,WUHU216HW,2013-02-12 20:05:00,
2013-02-12 10:10:00,72.5,63.0,29.97,South,180,1.6,4.5,72,0.00,,,0.00,WUHU216HW,2013-02-12 20:10:00,
2013-02-12 10:15:00,72.5,63.0,29.96,West,270,1.1,4.3,72,0.00,,,0.00,WUHU216HW,2013-02-12 20:15:00,
2013-02-12 10:20:00,72.5,63.0,29.96,NNW,338,0.9,4.3,72,0.00,,,0.00,WUHU216HW,2013-02-12 20:20:00,
2013-02-12 10:25:00,72.5,63.0,29.97,WSW,248,1.6,3.4,72,0.00,,,0.00,WUHU216HW,2013-02-12 20:25:00,
2013-02-12 10:30:00,72.5,63.0,29.97,NW,315,0.9,3.4,72,0.00,,,0.00,WUHU216HW,2013-02-12 20:30:00,
2013-02-12 10:35:00,72.5,63.0,29.96,NW,315,1.6,2.9,72,0.00,,,0.00,WUHU216HW,2013-02-12 20:35:00,
2013-02-12 10:40:00,72.7,63.2,29.96,SSE,158,1.6,2.7,72,0.00,,,0.00,WUHU216HW,2013-02-12 20:40:00,
2013-02-12 10:45:00,72.7,63.2,29.96,ESE,113,0.4,3.8,72,0.00,,,0.00,WUHU216HW,2013-02-12 20:45:00,
2013-02-12 10:50:00,72.7,63.2,29.96,ENE,68,1.1,3.8,72,0.00,,,0.00,WUHU216HW,2013-02-12 20:50:00,
2013-02-12 10:55:00,72.7,63.2,29.96,North,0,2.2,3.4,72,0.00,,,0.00,WUHU216HW,2013-02-12 20:55:00,
2013-02-12 11:00:00,72.7,63.2,29.96,West,270,1.1,2.7,72,0.00,,,0.00,WUHU216HW,2013-02-12 21:00:00,
2013-02-12 11:05:00,72.7,63.2,29.96,South,180,2.5,3.1,72,0.00,,,0.00,WUHU216HW,2013-02-12 21:05:00,
2013-02-12 11:10:00,72.9,63.4,29.96,SSW,203,4.3,4.3,72,0.00,,,0.00,WUHU216HW,2013-02-12 21:10:00,
2013-02-12 11:15:00,72.9,63.4,29.96,East,90,0.7,4.3,72,0.00,,,0.00,WUHU216HW,2013-02-12 21:15:00,
2013-02-12 11:20:00,72.9,63.4,29.96,ENE,68,0.4,4.3,72,0.00,,,0.00,WUHU216HW,2013-02-12 21:20:00,
2013-02-12 11:25:00,72.9,63.4,29.95,SSE,158,1.1,3.6,72,0.00,,,0.00,WUHU216HW,2013-02-12 21:25:00,
2013-02-12 11:30:00,72.9,63.4,29.95,ENE,68,1.8,3.6,72,0.00,,,0.00,WUHU216HW,2013-02-12 21:30:00,
2013-02-12 11:36:00,72.9,63.4,29.95,NE,45,0.4,2.7,72,0.00,,,0.00,WUHU216HW,2013-02-12 21:36:00,
2013-02-12 11:41:00,72.9,63.4,29.95,ENE,68,1.6,2.7,72,0.00,,,0.00,WUHU216HW,2013-02-12 21:41:00,
2013-02-12 11:46:00,72.9,63.4,29.95,WSW,248,2.5,3.1,72,0.00,,,0.00,WUHU216HW,2013-02-12 21:46:00,
2013-02-12 11:51:00,72.9,63.0,29.94,ESE,113,4.7,4.7,71,0.00,,,0.00,WUHU216HW,2013-02-12 21:51:00,
2013-02-12 11:56:00,73.1,63.2,29.94,SE,135,1.1,4.7,71,0.00,,,0.00,WUHU216HW,2013-02-12 21:56:00,
2013-02-12 12:01:00,73.1,63.2,29.94,WSW,248,0.9,4.7,71,0.00,,,0.00,WUHU216HW,2013-02-12 22:01:00,
2013-02-12 12:06:00,73.1,63.2,29.94,ENE,68,1.8,3.1,71,0.00,,,0.00,WUHU216HW,2013-02-12 22:06:00,
2013-02-12 12:11:00,73.1,63.5,29.93,SSE,158,2.0,3.8,72,0.00,,,0.00,WUHU216HW,2013-02-12 22:11:00,
2013-02-12 12:16:00,73.1,63.5,29.93,NNW,338,1.1,3.8,72,0.00,,,0.00,WUHU216HW,2013-02-12 22:16:00,
2013-02-12 12:21:00,73.1,63.5,29.93,NNE,23,4.0,4.0,72,0.00,,,0.00,WUHU216HW,2013-02-12 22:21:00,
2013-02-12 12:26:00,73.3,63.7,29.93,SSW,203,2.5,4.0,72,0.00,,,0.00,WUHU216HW,2013-02-12 22:26:00,
2013-02-12 12:31:00,73.3,63.7,29.93,South,180,2.0,4.3,72,0.00,,,0.00,WUHU216HW,2013-02-12 22:31:00,
2013-02-12 12:36:00,73.3,63.7,29.93,SW,225,2.5,4.3,72,0.00,,,0.00,WUHU216HW,2013-02-12 22:36:00,
2013-02-12 12:41:00,73.3,63.7,29.93,NNE,23,0.9,3.4,72,0.00,,,0.00,WUHU216HW,2013-02-12 22:41:00,
2013-02-12 12:46:00,73.3,63.4,29.92,South,180,2.9,4.0,71,0.00,,,0.00,WUHU216HW,2013-02-12 22:46:00,
2013-02-12 12:51:00,73.4,63.5,29.92,NNE,23,0.9,4.0,71,0.00,,,0.00,WUHU216HW,2013-02-12 22:51:00,
2013-02-12 12:56:00,73.4,63.5,29.92,NNE,23,0.9,3.4,71,0.00,,,0.00,WUHU216HW,2013-02-12 22:56:00,
2013-02-12 13:01:00,73.4,63.5,29.91,NNE,23,0.9,2.2,71,0.00,,,0.00,WUHU216HW,2013-02-12 23:01:00,
2013-02-12 13:06:00,73.4,63.5,29.92,NNW,338,1.6,4.0,71,0.00,,,0.00,WUHU216HW,2013-02-12 23:06:00,
2013-02-12 13:11:00,73.4,63.9,29.91,North,0,1.8,4.0,72,0.00,,,0.00,WUHU216HW,2013-02-12 23:11:00,
2013-02-12 13:16:00,73.4,64.4,29.91,NNW,338,1.1,2.2,73,0.00,,,0.00,WUHU216HW,2013-02-12 23:16:00,
2013-02-12 13:21:00,73.4,64.4,29.91,North,0,2.5,2.5,73,0.00,,,0.00,WUHU216HW,2013-02-12 23:21:00,
2013-02-12 13:26:00,73.4,64.4,29.91,North,0,2.0,2.5,73,0.00,,,0.00,WUHU216HW,2013-02-12 23:26:00,
2013-02-12 13:31:00,73.4,64.4,29.91,North,0,2.2,2.5,73,0.00,,,0.00,WUHU216HW,2013-02-12 23:31:00,
2013-02-12 13:36:00,73.3,64.2,29.91,ENE,68,1.6,2.5,73,0.00,,,0.00,WUHU216HW,2013-02-12 23:36:00,
2013-02-12 13:41:00,73.3,64.2,29.90,NE,45,1.1,2.9,73,0.00,,,0.00,WUHU216HW,2013-02-12 23:41:00,
2013-02-12 13:46:00,73.1,64.0,29.90,NE,45,3.6,3.6,73,0.00,,,0.00,WUHU216HW,2013-02-12 23:46:00,
2013-02-12 13:51:00,73.3,64.2,29.90,North,0,0.4,3.6,73,0.00,,,0.00,WUHU216HW,2013-02-12 23:51:00,
2013-02-12 13:56:00,73.3,64.2,29.90,SW,225,0.9,3.6,73,0.00,,,0.00,WUHU216HW,2013-02-12 23:56:00,
2013-02-12 14:01:00,73.4,64.4,29.90,North,0,0.7,2.7,73,0.00,,,0.00,WUHU216HW,2013-02-13 00:01:00,
2013-02-12 14:06:00,73.4,64.7,29.90,NE,45,2.0,2.7,74,0.00,,,0.00,WUHU216HW,2013-02-13 00:06:00,
2013-02-12 14:11:00,73.4,64.7,29.90,ESE,113,4.0,4.0,74,0.00,,,0.00,WUHU216HW,2013-02-13 00:11:00,
2013-02-12 14:16:00,73.4,64.7,29.89,East,90,1.8,4.0,74,0.00,,,0.00,WUHU216HW,2013-02-13 00:16:00,
2013-02-12 14:21:00,73.3,64.5,29.89,NNW,338,0.9,4.0,74,0.00,,,0.00,WUHU216HW,2013-02-13 00:21:00,
2013-02-12 14:26:00,73.3,64.5,29.89,NW,315,1.6,2.0,74,0.00,,,0.00,WUHU216HW,2013-02-13 00:26:00,
2013-02-12 14:31:00,73.3,64.2,29.89,SE,135,0.9,2.0,73,0.00,,,0.00,WUHU216HW,2013-02-13 00:31:00,
2013-02-12 14:36:00,73.3,64.2,29.89,North,0,2.5,2.7,73,0.00,,,0.00,WUHU216HW,2013-02-13 00:36:00,
2013-02-12 14:41:00,73.3,64.2,29.89,ENE,68,2.7,3.1,73,0.00,,,0.00,WUHU216HW,2013-02-13 00:41:00,
2013-02-12 14:46:00,73.3,64.2,29.89,SSW,203,1.8,4.7,73,0.00,,,0.00,WUHU216HW,2013-02-13 00:46:00,
2013-02-12 14:51:00,73.4,64.4,29.88,ENE,68,1.6,4.7,73,0.00,,,0.00,WUHU216HW,2013-02-13 00:51:00,
2013-02-12 14:56:00,73.4,64.4,29.88,SSW,203,4.0,4.0,73,0.00,,,0.00,WUHU216HW,2013-02-13 00:56:00,
2013-02-12 15:01:00,73.6,64.4,29.88,ENE,68,2.2,4.0,73,0.00,,,0.00,WUHU216HW,2013-02-13 01:01:00,
2013-02-12 15:06:00,73.6,64.4,29.88,SE,135,1.8,4.5,73,0.00,,,0.00,WUHU216HW,2013-02-13 01:06:00,
2013-02-12 15:11:00,73.8,64.6,29.88,ESE,113,2.7,4.5,73,0.00,,,0.00,WUHU216HW,2013-02-13 01:11:00,
2013-02-12 15:16:00,73.8,64.6,29.88,SW,225,1.1,4.5,73,0.00,,,0.00,WUHU216HW,2013-02-13 01:16:00,
2013-02-12 15:21:00,73.8,64.3,29.88,SSE,158,3.1,4.9,72,0.00,,,0.00,WUHU216HW,2013-02-13 01:21:00,
2013-02-12 15:26:00,73.8,64.3,29.88,North,0,2.5,4.9,72,0.00,,,0.00,WUHU216HW,2013-02-13 01:26:00,
2013-02-12 15:31:00,73.8,64.3,29.88,SSE,158,3.4,4.0,72,0.00,,,0.00,WUHU216HW,2013-02-13 01:31:00,
2013-02-12 15:36:00,73.8,63.9,29.88,SE,135,4.9,4.9,71,0.00,,,0.00,WUHU216HW,2013-02-13 01:36:00,
2013-02-12 15:41:00,73.8,63.9,29.88,ENE,68,1.8,4.9,71,0.00,,,0.00,WUHU216HW,2013-02-13 01:41:00,
2013-02-12 15:46:00,73.8,63.9,29.88,East,90,2.5,4.9,71,0.00,,,0.00,WUHU216HW,2013-02-13 01:46:00,
2013-02-12 15:51:00,73.8,63.9,29.88,NNE,23,3.1,4.0,71,0.00,,,0.00,WUHU216HW,2013-02-13 01:51:00,
2013-02-12 15:56:00,73.8,63.9,29.88,SW,225,2.2,4.0,71,0.00,,,0.00,WUHU216HW,2013-02-13 01:56:00,
2013-02-12 16:01:00,73.8,63.9,29.88,NNE,23,2.7,4.0,71,0.00,,,0.00,WUHU216HW,2013-02-13 02:01:00,
2013-02-12 16:06:00,73.8,63.9,29.87,NE,45,3.1,3.8,71,0.00,,,0.00,WUHU216HW,2013-02-13 02:06:00,
2013-02-12 16:11:00,73.8,63.9,29.87,ESE,113,1.3,4.0,71,0.00,,,0.00,WUHU216HW,2013-02-13 02:11:00,
2013-02-12 16:16:00,73.8,63.9,29.87,ESE,113,2.0,4.0,71,0.00,,,0.00,WUHU216HW,2013-02-13 02:16:00,
2013-02-12 16:21:00,73.8,63.9,29.87,South,180,3.6,3.6,71,0.00,,,0.00,WUHU216HW,2013-02-13 02:21:00,
2013-02-12 16:26:00,73.8,63.9,29.87,ENE,68,2.5,3.6,71,0.00,,,0.00,WUHU216HW,2013-02-13 02:26:00,
2013-02-12 16:31:00,73.8,63.9,29.87,South,180,2.5,4.0,71,0.00,,,0.00,WUHU216HW,2013-02-13 02:31:00,
2013-02-12 16:36:00,73.8,63.9,29.87,SSE,158,1.6,4.0,71,0.00,,,0.00,WUHU216HW,2013-02-13 02:36:00,
2013-02-12 16:41:00,73.8,63.9,29.87,North,0,1.6,2.7,71,0.00,,,0.00,WUHU216HW,2013-02-13 02:41:00,
2013-02-12 16:46:00,73.8,63.9,29.87,WNW,293,1.3,2.9,71,0.00,,,0.00,WUHU216HW,2013-02-13 02:46:00,
2013-02-12 16:51:00,73.8,63.6,29.87,ESE,113,2.5,3.6,70,0.00,,,0.00,WUHU216HW,2013-02-13 02:51:00,
2013-02-12 16:56:00,73.8,63.6,29.87,SSE,158,1.1,3.6,70,0.00,,,0.00,WUHU216HW,2013-02-13 02:56:00,
2013-02-12 17:01:00,73.8,63.6,29.87,NW,315,1.3,3.4,70,0.00,,,0.00,WUHU216HW,2013-02-13 03:01:00,
2013-02-12 17:06:00,73.6,63.7,29.87,ENE,68,2.0,3.1,71,0.00,,,0.00,WUHU216HW,2013-02-13 03:06:00,
2013-02-12 17:11:00,73.8,63.9,29.87,East,90,0.4,2.7,71,0.00,,,0.00,WUHU216HW,2013-02-13 03:11:00,
2013-02-12 17:16:00,73.6,63.7,29.87,NE,45,0.7,2.9,71,0.00,,,0.00,WUHU216HW,2013-02-13 03:16:00,
2013-02-12 17:21:00,73.6,63.7,29.88,South,180,2.2,2.9,71,0.00,,,0.00,WUHU216HW,2013-02-13 03:21:00,
2013-02-12 17:26:00,73.6,63.7,29.88,NE,45,1.6,2.7,71,0.00,,,0.00,WUHU216HW,2013-02-13 03:26:00,
2013-02-12 17:31:00,73.4,63.5,29.88,SE,135,4.0,4.7,71,0.00,,,0.00,WUHU216HW,2013-02-13 03:31:00,
2013-02-12 17:36:00,73.4,63.5,29.88,ENE,68,0.7,4.7,71,0.00,,,0.00,WUHU216HW,2013-02-13 03:36:00,
2013-02-12 17:41:00,73.4,63.5,29.88,North,0,0.4,4.0,71,0.00,,,0.00,WUHU216HW,2013-02-13 03:41:00,
2013-02-12 17:46:00,73.4,63.5,29.88,NE,45,1.8,3.4,71,0.00,,,0.00,WUHU216HW,2013-02-13 03:46:00,
2013-02-12 17:51:00,73.4,63.5,29.88,ESE,113,3.1,3.1,71,0.00,,,0.00,WUHU216HW,2013-02-13 03:51:00,
2013-02-12 17:56:00,73.4,63.5,29.88,NW,315,1.8,4.9,71,0.00,,,0.00,WUHU216HW,2013-02-13 03:56:00,
2013-02-12 18:01:00,73.4,63.5,29.88,ENE,68,4.5,4.9,71,0.00,,,0.00,WUHU216HW,2013-02-13 04:01:00,
2013-02-12 18:06:00,73.4,63.5,29.88,SSE,158,1.8,4.5,71,0.00,,,0.00,WUHU216HW,2013-02-13 04:06:00,
2013-02-12 18:11:00,73.4,63.5,29.88,SE,135,1.3,4.7,71,0.00,,,0.00,WUHU216HW,2013-02-13 04:11:00,
2013-02-12 18:16:00,73.4,63.5,29.88,WSW,248,0.4,4.7,71,0.00,,,0.00,WUHU216HW,2013-02-13 04:16:00,
2013-02-12 18:21:00,73.4,63.5,29.88,ESE,113,2.0,2.9,71,0.00,,,0.00,WUHU216HW,2013-02-13 04:21:00,
2013-02-12 18:26:00,73.4,63.2,29.89,SSE,158,2.7,4.3,70,0.00,,,0.00,WUHU216HW,2013-02-13 04:26:00,
2013-02-12 18:31:00,73.4,63.2,29.89,SE,135,0.4,4.3,70,0.00,,,0.00,WUHU216HW,2013-02-13 04:31:00,
2013-02-12 18:36:00,73.3,63.4,29.88,ENE,68,1.8,3.1,71,0.00,,,0.00,WUHU216HW,2013-02-13 04:36:00,
2013-02-12 18:41:00,73.3,63.4,29.89,NE,45,1.3,3.1,71,0.00,,,0.00,WUHU216HW,2013-02-13 04:41:00,
2013-02-12 18:46:00,73.3,63.4,29.89,SE,135,4.7,4.7,71,0.00,,,0.00,WUHU216HW,2013-02-13 04:46:00,
2013-02-12 18:51:00,73.3,63.4,29.89,SE,135,3.1,4.7,71,0.00,,,0.00,WUHU216HW,2013-02-13 04:51:00,
2013-02-12 18:56:00,73.3,63.4,29.89,SSE,158,1.1,4.7,71,0.00,,,0.00,WUHU216HW,2013-02-13 04:56:00,
2013-02-12 19:00:00,73.3,63.4,29.89,SSW,203,2.2,3.6,71,0.00,,,0.00,WUHU216HW,2013-02-13 05:00:00,
2013-02-12 19:05:00,73.3,63.4,29.89,SSE,158,3.4,3.6,71,0.00,,,0.00,WUHU216HW,2013-02-13 05:05:00,
2013-02-12 19:10:00,73.3,63.0,29.89,ENE,68,2.2,3.4,70,0.00,,,0.00,WUHU216HW,2013-02-13 05:10:00,
2013-02-12 19:15:00,73.3,63.0,29.89,NW,315,1.1,3.6,70,0.00,,,0.00,WUHU216HW,2013-02-13 05:15:00,
2013-02-12 19:20:00,73.1,62.8,29.90,SSE,158,3.1,3.8,70,0.00,,,0.00,WUHU216HW,2013-02-13 05:20:00,
2013-02-12 19:25:00,73.1,62.8,29.90,NE,45,2.9,3.8,70,0.00,,,0.00,WUHU216HW,2013-02-13 05:25:00,
2013-02-12 19:30:00,73.1,62.8,29.90,East,90,1.3,3.1,70,0.00,,,0.00,WUHU216HW,2013-02-13 05:30:00,
2013-02-12 19:35:00,73.1,62.8,29.90,SSW,203,1.8,2.9,70,0.00,,,0.00,WUHU216HW,2013-02-13 05:35:00,
2013-02-12 19:40:00,73.1,62.8,29.90,SSE,158,1.3,2.0,70,0.00,,,0.00,WUHU216HW,2013-02-13 05:40:00,
2013-02-12 19:45:00,73.1,62.8,29.90,NNW,338,1.8,3.4,70,0.00,,,0.00,WUHU216HW,2013-02-13 05:45:00,
2013-02-12 19:50:00,73.1,62.8,29.90,WSW,248,2.0,3.8,70,0.00,,,0.00,WUHU216HW,2013-02-13 05:50:00,
2013-02-12 19:55:00,73.1,62.8,29.90,North,0,1.1,3.8,70,0.00,,,0.00,WUHU216HW,2013-02-13 05:55:00,
2013-02-12 20:00:00,72.9,62.6,29.90,ESE,113,2.5,2.5,70,0.00,,,0.00,WUHU216HW,2013-02-13 06:00:00,
2013-02-12 20:05:00,72.9,62.6,29.90,South,180,3.4,3.4,70,0.00,,,0.00,WUHU216HW,2013-02-13 06:05:00,
2013-02-12 20:10:00,72.9,62.6,29.90,NNW,338,2.0,3.4,70,0.00,,,0.00,WUHU216HW,2013-02-13 06:10:00,
2013-02-12 20:15:00,72.9,62.6,29.90,SSW,203,1.1,3.4,70,0.00,,,0.00,WUHU216HW,2013-02-13 06:15:00,
2013-02-12 20:20:00,72.9,62.6,29.91,NNE,23,1.6,3.4,70,0.00,,,0.00,WUHU216HW,2013-02-13 06:20:00,
2013-02-12 20:25:00,72.7,62.5,29.91,SE,135,0.7,2.9,70,0.00,,,0.00,WUHU216HW,2013-02-13 06:25:00,
2013-02-12 20:30:00,72.7,62.0,29.91,WSW,248,0.9,3.1,69,0.00,,,0.00,WUHU216HW,2013-02-13 06:30:00,
2013-02-12 20:35:00,72.7,62.0,29.91,NE,45,0.9,3.1,69,0.00,,,0.00,WUHU216HW,2013-02-13 06:35:00,
2013-02-12 20:40:00,72.7,62.0,29.91,SE,135,1.1,2.5,69,0.00,,,0.00,WUHU216HW,2013-02-13 06:40:00,
2013-02-12 20:45:00,72.7,62.0,29.91,ESE,113,2.2,3.1,69,0.00,,,0.00,WUHU216HW,2013-02-13 06:45:00,
2013-02-12 20:50:00,72.5,61.8,29.91,SSW,203,0.4,3.1,69,0.00,,,0.00,WUHU216HW,2013-02-13 06:50:00,
2013-02-12 20:55:00,72.7,61.6,29.91,SSW,203,1.6,3.1,68,0.00,,,0.00,WUHU216HW,2013-02-13 06:55:00,
2013-02-12 21:00:00,72.5,61.4,29.91,ENE,68,2.0,3.1,68,0.00,,,0.00,WUHU216HW,2013-02-13 07:00:00,
2013-02-12 21:05:00,72.5,61.4,29.91,WSW,248,3.1,3.4,68,0.00,,,0.00,WUHU216HW,2013-02-13 07:05:00,
2013-02-12 21:10:00,72.5,61.4,29.91,SSW,203,1.1,3.4,68,0.00,,,0.00,WUHU216HW,2013-02-13 07:10:00,
2013-02-12 21:15:00,72.5,61.4,29.92,North,0,1.8,3.4,68,0.00,,,0.00,WUHU216HW,2013-02-13 07:15:00,
2013-02-12 21:20:00,72.5,61.4,29.92,SSE,158,1.1,2.5,68,0.00,,,0.00,WUHU216HW,2013-02-13 07:20:00,
2013-02-12 21:25:00,72.5,61.4,29.92,NNW,338,1.3,2.9,68,0.00,,,0.00,WUHU216HW,2013-02-13 07:25:00,
2013-02-12 21:30:00,72.5,60.9,29.92,ENE,68,1.1,3.8,67,0.00,,,0.00,WUHU216HW,2013-02-13 07:30:00,
2013-02-12 21:35:00,72.5,61.4,29.92,SSE,158,2.0,3.8,68,0.00,,,0.00,WUHU216HW,2013-02-13 07:35:00,
2013-02-12 21:40:00,72.5,60.9,29.92,WNW,293,1.3,3.4,67,0.00,,,0.00,WUHU216HW,2013-02-13 07:40:00,
2013-02-12 21:45:00,72.4,60.8,29.92,SSW,203,0.9,2.9,67,0.00,,,0.00,WUHU216HW,2013-02-13 07:45:00,
2013-02-12 21:50:00,72.4,60.8,29.92,SW,225,2.9,3.4,67,0.00,,,0.00,WUHU216HW,2013-02-13 07:50:00,
2013-02-12 21:55:00,72.4,60.8,29.92,SW,225,1.1,3.4,67,0.00,,,0.00,WUHU216HW,2013-02-13 07:55:00,
2013-02-12 22:00:00,72.4,60.8,29.92,NE,45,1.1,3.4,67,0.00,,,0.00,WUHU216HW,2013-02-13 08:00:00,
2013-02-12 22:05:00,72.4,60.8,29.92,SW,225,1.1,3.4,67,0.00,,,0.00,WUHU216HW,2013-02-13 08:05:00,
2013-02-12 22:10:00,72.4,60.8,29.92,NE,45,1.3,2.0,67,0.00,,,0.00,WUHU216HW,2013-02-13 08:10:00,
2013-02-12 22:15:00,72.4,60.3,29.92,SSE,158,0.9,2.5,66,0.00,,,0.00,WUHU216HW,2013-02-13 08:15:00,
2013-02-12 22:20:00,72.2,60.2,29.92,ENE,68,1.6,2.9,66,0.00,,,0.00,WUHU216HW,2013-02-13 08:20:00,
2013-02-12 22:25:00,72.2,60.2,29.92,SSW,203,0.9,2.9,66,0.00,,,0.00,WUHU216HW,2013-02-13 08:25:00,
2013-02-12 22:30:00,72.2,60.2,29.92,SE,135,0.2,2.2,66,0.00,,,0.00,WUHU216HW,2013-02-13 08:30:00,
2013-02-12 22:35:00,72.2,60.2,29.92,NNE,23,0.7,2.2,66,0.00,,,0.00,WUHU216HW,2013-02-13 08:35:00,
2013-02-12 22:40:00,72.0,60.0,29.92,SW,225,0.7,2.7,66,0.00,,,0.00,WUHU216HW,2013-02-13 08:40:00,
2013-02-12 22:45:00,72.0,60.0,29.91,SSE,158,3.1,4.9,66,0.00,,,0.00,WUHU216HW,2013-02-13 08:45:00,
2013-02-12 22:50:00,72.2,60.2,29.91,SSE,158,0.7,4.9,66,0.00,,,0.00,WUHU216HW,2013-02-13 08:50:00,
2013-02-12 22:55:00,72.0,60.0,29.91,NE,45,0.9,3.1,66,0.00,,,0.00,WUHU216HW,2013-02-13 08:55:00,
2013-02-12 23:00:00,72.0,60.0,29.91,South,180,2.5,2.5,66,0.00,,,0.00,WUHU216HW,2013-02-13 09:00:00,
2013-02-12 23:05:00,72.0,60.0,29.91,NE,45,2.0,2.7,66,0.00,,,0.00,WUHU216HW,2013-02-13 09:05:00,
2013-02-12 23:10:00,72.0,60.0,29.91,East,90,1.6,3.1,66,0.00,,,0.00,WUHU216HW,2013-02-13 09:10:00,
2013-02-12 23:15:00,72.0,60.0,29.91,WNW,293,2.2,3.6,66,0.00,,,0.00,WUHU216HW,2013-02-13 09:15:00,
2013-02-12 23:20:00,72.0,60.0,29.92,South,180,1.8,5.8,66,0.00,,,0.00,WUHU216HW,2013-02-13 09:20:00,
2013-02-12 23:25:00,72.0,60.0,29.92,NNE,23,0.4,5.8,66,0.00,,,0.00,WUHU216HW,2013-02-13 09:25:00,
2013-02-12 23:30:00,72.0,60.0,29.92,South,180,1.6,2.5,66,0.00,,,0.00,WUHU216HW,2013-02-13 09:30:00,
2013-02-12 23:35:00,72.0,60.0,29.92,NE,45,0.4,3.8,66,0.00,,,0.00,WUHU216HW,2013-02-13 09:35:00,
2013-02-12 23:40:00,72.0,60.0,29.92,South,180,0.4,3.8,66,0.00,,,0.00,WUHU216HW,2013-02-13 09:40:00,
2013-02-12 23:45:00,72.0,60.0,29.92,SE,135,1.6,2.9,66,0.00,,,0.00,WUHU216HW,2013-02-13 09:45:00,
2013-02-12 23:50:00,72.0,60.0,29.91,NNE,23,1.1,2.9,66,0.00,,,0.00,WUHU216HW,2013-02-13 09:50:00,
2013-02-12 23:55:00,72.0,60.0,29.91,SE,135,0.7,2.7,66,0.00,,,0.00,WUHU216HW,2013-02-13 09:55:00,